Overview Statistics Trail Chart Weather Telemetry Raw packets
 

This is the latest recevied weather packets stored in our database for station/object KC5TIL. If no packets are shown the sender has not sent any weather packets the latest 10 day(s).

<< 32 33 34 35 36 37 38 >>
Time Temp. Humidity Pressure Rain* Wind** Luminosity Snow
1788389861 36.67° C 42% 1011.9 hPa 0 mm - 209 W/m² -
1788389556 36.67° C 43% 1011.8 hPa 0 mm - 213 W/m² -
1788389254 36.67° C 43% 1011.9 hPa 0 mm - 206 W/m² -
1788388950 37.22° C 42% 1011.8 hPa 0 mm - 208 W/m² -
1788388646 37.22° C 41% 1012.1 hPa 0 mm - 253 W/m² -
1788388345 37.22° C 42% 1011.9 hPa 0 mm - 278 W/m² -
1788388044 37.22° C 41% 1012.1 hPa 0 mm - 282 W/m² -
1788387739 37.78° C 44% 1011.9 hPa 0 mm - 306 W/m² -
1788387434 37.78° C 42% 1011.9 hPa 0 mm - 318 W/m² -
1788387132 37.78° C 43% 1012 hPa 0 mm - 305 W/m² -
1788386823 37.78° C 42% 1011.9 hPa 0 mm - 337 W/m² -
1788386523 37.78° C 40% 1012.1 hPa 0 mm - 365 W/m² -
1788386219 37.22° C 41% 1012 hPa 0 mm - 387 W/m² -
1788385914 37.22° C 41% 1012.1 hPa 0 mm - 415 W/m² -
1788385609 37.22° C 41% 1012 hPa 0 mm - 391 W/m² -
1788385308 37.78° C 44% 1012 hPa 0 mm - 409 W/m² -
1788385004 37.78° C 40% 1012.1 hPa 0 mm - 478 W/m² -
1788384703 36.67° C 43% 1012.3 hPa 0 mm - 461 W/m² -
1788384398 36.67° C 42% 1012.2 hPa 0 mm - 523 W/m² -
1788384095 36.67° C 42% 1012.5 hPa 0 mm - 525 W/m² -
1788383791 36.67° C 43% 1012.3 hPa 0 mm - 499 W/m² -
1788383486 37.22° C 42% 1012.5 hPa 0 mm - 495 W/m² -
1788383185 37.22° C 43% 1012.7 hPa 0 mm - 530 W/m² -
1788382881 36.67° C 43% 1012.6 hPa 0 mm - 442 W/m² -
1788382579 36.67° C 42% 1012.6 hPa 0 mm - 497 W/m² -

* Rain latest hour (hover to see other rain measurements)
** Current wind speed in m/s (hover to see current wind gust speed)